TimeEST,TemperatureF,Dew PointF,Humidity,Sea Level PressureIn,VisibilityMPH,Wind Direction,Wind SpeedMPH,Gust SpeedMPH,PrecipitationIn,Events,Conditions,WindDirDegrees,DateUTC
12:00 AM,44.6,42.8,93,29.41,10.0,WNW,20.7,27.6,0.00,Rain,Light Rain,300,2013-12-30 05:00:00
12:53 AM,41.0,39.0,93,29.50,10.0,NW,23.0,32.2,0.00,Rain,Light Rain,320,2013-12-30 05:53:00
1:25 AM,41.0,37.4,87,29.55,10.0,NW,18.4,24.2,0.00,Rain,Light Rain,320,2013-12-30 06:25:00
1:53 AM,41.0,37.9,89,29.60,10.0,NW,15.0,25.3,0.00,Rain,Light Rain,310,2013-12-30 06:53:00
2:01 AM,41.0,37.4,87,29.60,10.0,WNW,17.3,26.5,0.00,Rain,Light Rain,300,2013-12-30 07:01:00
2:53 AM,39.0,37.0,93,29.65,10.0,WNW,19.6,26.5,0.00,Rain,Light Rain,300,2013-12-30 07:53:00
3:40 AM,37.4,35.6,93,29.66,10.0,WNW,11.5,-,0.00,Rain,Light Rain,300,2013-12-30 08:40:00
3:53 AM,37.0,35.1,93,29.68,10.0,West,11.5,-,0.00,Rain,Light Rain,280,2013-12-30 08:53:00
4:53 AM,37.0,35.1,93,29.69,10.0,West,8.1,-,0.00,Rain,Light Rain,270,2013-12-30 09:53:00
5:53 AM,37.9,36.0,93,29.75,10.0,West,8.1,-,0.00,,Clear,270,2013-12-30 10:53:00
6:53 AM,37.9,36.0,93,29.78,10.0,West,10.4,-,N/A,,Clear,260,2013-12-30 11:53:00
7:53 AM,39.9,37.0,89,29.83,10.0,West,11.5,-,N/A,,Mostly Cloudy,280,2013-12-30 12:53:00
8:53 AM,42.1,37.0,82,29.85,10.0,West,13.8,-,N/A,,Scattered Clouds,270,2013-12-30 13:53:00
9:53 AM,44.1,39.0,82,29.86,10.0,West,12.7,21.9,N/A,,Scattered Clouds,270,2013-12-30 14:53:00
10:53 AM,45.0,37.9,76,29.87,10.0,West,17.3,25.3,N/A,,Clear,260,2013-12-30 15:53:00
11:53 AM,45.0,37.0,74,29.87,10.0,West,17.3,27.6,N/A,,Scattered Clouds,270,2013-12-30 16:53:00
12:53 PM,45.0,36.0,71,29.88,10.0,WNW,13.8,-,N/A,,Overcast,300,2013-12-30 17:53:00
1:17 PM,44.6,33.8,66,29.89,10.0,NW,13.8,-,N/A,,Overcast,310,2013-12-30 18:17:00
1:33 PM,42.8,33.8,70,29.89,10.0,NW,11.5,21.9,N/A,,Overcast,310,2013-12-30 18:33:00
1:53 PM,43.0,33.1,68,29.90,10.0,NW,12.7,-,N/A,,Scattered Clouds,320,2013-12-30 18:53:00
2:53 PM,39.9,25.0,55,29.92,10.0,WNW,12.7,21.9,N/A,,Mostly Cloudy,290,2013-12-30 19:53:00
3:53 PM,37.9,19.9,48,29.96,10.0,WNW,13.8,-,N/A,,Partly Cloudy,300,2013-12-30 20:53:00
4:53 PM,37.0,18.0,46,29.98,10.0,WNW,9.2,-,N/A,,Clear,300,2013-12-30 21:53:00
5:53 PM,36.0,21.0,55,30.01,10.0,NW,12.7,18.4,N/A,,Clear,310,2013-12-30 22:53:00
6:53 PM,35.1,17.1,48,30.05,10.0,NW,13.8,-,N/A,,Clear,320,2013-12-30 23:53:00
7:53 PM,34.0,16.0,48,30.06,10.0,NNW,11.5,-,N/A,,Clear,340,2013-12-31 00:53:00
8:53 PM,33.1,17.1,52,30.09,10.0,NNW,13.8,-,N/A,,Clear,330,2013-12-31 01:53:00
9:53 PM,33.1,19.9,59,30.10,10.0,NNW,11.5,-,N/A,,Clear,340,2013-12-31 02:53:00
10:53 PM,30.9,19.0,61,30.11,10.0,North,10.4,-,N/A,,Clear,360,2013-12-31 03:53:00
11:53 PM,28.9,19.0,67,30.11,10.0,North,10.4,19.6,N/A,,Clear,360,2013-12-31 04:53:00